This is the latest recevied weather packets stored in our database for station/object N8SDR. If no packets are shown the sender has not sent any weather packets the latest 10 day(s).
| Time | Temp. | Humidity | Pressure | Rain* | Wind** | Luminosity | Snow |
|---|---|---|---|---|---|---|---|
| 1777912935 | 19.44° C | 67% | 1004.7 hPa | 0 mm | - | 329 W/m² | - |
| 1777912631 | 19.44° C | 67% | 1004.7 hPa | 0 mm | - | 304 W/m² | - |
| 1777912327 | 19.44° C | 67% | 1004.8 hPa | 0 mm | - | 297 W/m² | - |
| 1777912023 | 18.89° C | 67% | 1004.6 hPa | 0 mm | - | 265 W/m² | - |
| 1777911719 | 18.89° C | 68% | 1004.8 hPa | 0 mm | - | 262 W/m² | - |
| 1777911416 | 18.89° C | 67% | 1005.1 hPa | 0 mm | - | 269 W/m² | - |
| 1777911113 | 18.89° C | 68% | 1005.2 hPa | 0 mm | - | 229 W/m² | - |
| 1777910811 | 18.33° C | 67% | 1004.9 hPa | 0 mm | - | 217 W/m² | - |
| 1777910507 | 18.33° C | 67% | 1005.4 hPa | 0 mm | - | 278 W/m² | - |
| 1777910204 | 18.89° C | 67% | 1005.4 hPa | 0 mm | - | 269 W/m² | - |
| 1777909901 | 18.33° C | 67% | 1005.1 hPa | 0 mm | - | 263 W/m² | - |
| 1777909598 | 18.89° C | 67% | 1005 hPa | 0 mm | - | 295 W/m² | - |
| 1777909295 | 18.89° C | 65% | 1005.2 hPa | 0 mm | - | 399 W/m² | - |
| 1777908993 | 18.89° C | 65% | 1005.1 hPa | 0 mm | - | 523 W/m² | - |
| 1777908691 | 18.33° C | 65% | 1005.2 hPa | 0 mm | - | 548 W/m² | - |
| 1777908387 | 18.33° C | 66% | 1005.2 hPa | 0 mm | - | 644 W/m² | - |
| 1777908084 | 18.33° C | 67% | 1005.3 hPa | 0 mm | - | 393 W/m² | - |
| 1777907780 | 17.78° C | 66% | 1005.2 hPa | 0 mm | - | 294 W/m² | - |
| 1777907475 | 17.78° C | 66% | 1005.5 hPa | 0 mm | - | 255 W/m² | - |
| 1777907172 | 17.78° C | 66% | 1005 hPa | 0 mm | - | 356 W/m² | - |
| 1777906869 | 18.33° C | 66% | 1005.4 hPa | 0 mm | - | 294 W/m² | - |
| 1777906567 | 18.89° C | 65% | 1005.5 hPa | 0 mm | - | 308 W/m² | - |
| 1777906262 | 18.33° C | 66% | 1005.2 hPa | 0 mm | - | 545 W/m² | - |
| 1777905959 | 17.78° C | 67% | 1005.1 hPa | 0 mm | - | 286 W/m² | - |
| 1777905655 | 17.78° C | 66% | 1005.2 hPa | 0 mm | - | 189 W/m² | - |
* Rain latest hour (hover to see other rain measurements)
** Current wind speed in m/s (hover to see current wind gust speed)